Skip Page Navigation
NASA JPL Caltech
NASA Logo - Jet Propulsion Laboratory + View the NASA Portal
+ Near-Earth Object (NEO) Program
Search JPL
JPL Home Earth Solar System Stars & Galaxies Technology
JPL Solar System Dynamics
BODIES ORBITS EPHEMERIDES TOOLS PHYSICAL DATA DISCOVERY FAQ SITE MAP
JPL Small-Body Database Browser
Search: [ help ]  
43809 (1991 RE14)
Classification: Main-belt Asteroid          SPK-ID: 2043809
Ephemeris | Orbit Diagram | Orbital Elements | Physical Parameters | Discovery Circumstances | Close-Approach Data ]

[ show orbit diagram ]
Orbital Elements at Epoch 2457000.5 (2014-Dec-09.0) TDB
Reference: JPL 16 (heliocentric ecliptic J2000)
 Element Value Uncertainty (1-sigma)   Units 
e .1614910639591121 7.1733e-08  
a 2.391790034823152 1.4605e-08 AU
q 2.00553731733276 1.7434e-07 AU
i 8.53995216112186 7.5951e-06 deg
node 343.3757522279619 3.3638e-05 deg
peri 334.7521364580683 3.7425e-05 deg
M 131.9712057467661 1.7441e-05 deg
tp 2456505.209852542095
(2013-Jul-31.70985254)
6.4604e-05 JED
period 1351.086034835406
3.70
1.2375e-05
3.388e-08
d
yr
n .2664523137076585 2.4406e-09 deg/d
Q 2.778042752313545 1.6964e-08 AU
  Orbit Determination Parameters
   # obs. used (total)      825  
   data-arc span      8588 days (23.51 yr)  
   first obs. used      1991-09-10  
   last obs. used      2015-03-16  
   planetary ephem.      DE431  
   SB-pert. ephem.      SB431-BIG16  
   condition code      0  
   fit RMS      .55666  
   data source      ORB  
   producer      Otto Matic  
   solution date      2015-Apr-07 18:01:55  

Additional Information
 Earth MOID = .997296 AU 
 T_jup = 3.499 
[ show covariance matrix ]

Ephemeris | Orbit Diagram | Orbital Elements | Physical Parameters | Discovery Circumstances | Close-Approach Data ]

Physical Parameter Table
Parameter Symbol Value Units Sigma Reference Notes
absolute magnitude H 14.0 mag n/a MPO267850  

43809 (1991 RE14)          Discovered 1991-Sep-13 by Holt, H. E. at Palomar
Reference: 20020822/Numbers.arcLast Updated: 2004-04-19

[ show close-approach data ]
Alternate Designations
 1991 RE14 = 2001 FQ44 
Ephemeris | Orbit Diagram | Orbital Elements | Physical Parameters | Discovery Circumstances | Close-Approach Data ]
ABOUT SSD CREDITS/AWARDS PRIVACY/COPYRIGHT GLOSSARY LINKS
FirstGov 2015-May-07 00:39 UT
(server date/time)  
NASA Home Page
Site Manager:   Ryan S. Park
Webmaster  Alan B. Chamberlin